Weather Roundup
Issued by NWS

Home | Current Version | Previous Version | Text Only | Print | Product List | Glossary On
Versions: 1 2 3 4 5 6 7 8 9 10 11 12 13 14 15 16 17 18 19 20 21 22 23 24 25 26 27 28 29 30 31 32 33 34 35 36 37 38 39 40 41 42 43 44 45 46 47 48 49 50
000
NZUS93 KARX 270110
HRRWXR

CURRENT HOURLY OBSERVATIONS ACROSS
MUCH OF THE UPPER MISSISSIPPI VALLEY
NATIONAL WEATHER SERVICE LA CROSSE WI
700 PM CST MON JAN 26 2015


...SOUTHEAST MINNESOTA...


CITY           SKY/WX    TMP DP  RH WIND       PRES   REMARKS
ROCHESTER      CLOUDY    36  32  85 NW14      29.84R WCI  27
ROCHESTER/MAYO MOCLDY    38  32  79 W12       29.84R WCI  30
WINONA         CLOUDY    30  28  93 CALM      29.85S
AUSTIN         CLOUDY    37  34  87 NW15      29.85R WCI  28
ALBERT LEA     CLOUDY    37  34  87 NW10G17   29.88R WCI  30
DODGE CENTER   CLOUDY    37  34  87 NW12      29.84R WCI  30
PRESTON        CLOUDY    36  32  85 NW12      29.84R WCI  28
OWATONNA       CLOUDY    37  30  75 NW12      29.87R WCI  30
FARIBAULT      CLOUDY    37  32  81 W10       29.87R WCI  30
$$

...ELSEWHERE IN MINNESOTA...


CITY           SKY/WX    TMP DP  RH WIND       PRES   REMARKS
MINNEAPOLIS    CLOUDY    39  29  67 NW12      29.87R WCI  32
INTNL FALLS    CLOUDY    27  22  81 NW8       29.90R WCI  19
DULUTH         CLOUDY    30  25  81 N12G20    29.84R WCI  20
RED WING       CLOUDY    39  32  75 N7        29.85R WCI  34
REDWOOD FALLS  CLOUDY    39  32  76 NW15G21   29.94R WCI  31
MANKATO        CLOUDY    37  30  75 NW9       29.89R WCI  31
WORTHINGTON    MOCLDY    34  30  86 NW10      29.96R WCI  26
FAIRMONT       CLOUDY    37  30  75 NW10      29.92R WCI  30
$$

...SOUTHWEST WISCONSIN...


CITY           SKY/WX    TMP DP  RH WIND       PRES   REMARKS
LA CROSSE      CLOUDY    30  26  85 S3        29.85R
PRAIRIE DU CHI CLOUDY    29  25  86 E3        29.86R FOG
BOSCOBEL       CLOUDY    27  24  89 NE3       29.87R FOG
LONE ROCK      LGT SNOW  25  23  92 E3        29.87R FOG
PLATTEVILLE    CLOUDY    26  25  96 E3        29.85R
FORT MC COY    CLOUDY    27  26  99 CALM      29.86R
CAMP DOUGLAS   LGT SNOW  25  25 100 E3        29.84R FOG
VIROQUA        CLOUDY    26  26 100 CALM      29.82S
WIS DELLS      MIX PCPN  23  21  93 S5        29.85R WCI  17
$$

...ELSEWHERE IN WISCONSIN...


CITY           SKY/WX    TMP DP  RH WIND       PRES   REMARKS
MILWAUKEE      LGT SNOW  26  20  77 SE7       29.90S WCI  18
MADISON        LGT SNOW  24  22  91 S7        29.86R FOG     WCI  16
GREEN BAY      LGT SNOW  25  20  81 S7        29.89R WCI  17
EAU CLAIRE     CLOUDY    27  24  89 NE3       29.84R
BLACK RVR FLS  CLOUDY    27  27 100 CALM      29.84R FOG
MEDFORD        LGT SNOW  20  19  93 CALM      29.81S
WAUSAU         LGT SNOW  21  19  92 E5        29.83R FOG     WCI  15
WIS RAPIDS     CLOUDY    23  20  88 SE3       29.86S FOG
MARSHFIELD     CLOUDY    23  21  92 SE3       29.83R FOG
RICE LAKE      LGT SNOW  27  26  94 CALM      29.85R
$$

...NORTHEAST IOWA...


CITY           SKY/WX    TMP DP  RH WIND       PRES   REMARKS
DECORAH        CLOUDY    37  34  87 CALM      29.82R
MASON CITY     PTCLDY    37  32  82 NW16      29.89R WCI  28
CHARLES CITY   CLOUDY    39  37  93 NW12      29.87R WCI  32
OELWEIN        CLOUDY    37  36  93 NW8       29.86R WCI  31
$$

...ELSEWHERE IN IOWA...


CITY           SKY/WX    TMP DP  RH WIND       PRES   REMARKS
DES MOINES     MOCLDY    46  36  68 N14       29.92R
IOWA CITY      CLOUDY    39  35  86 W7        29.88R WCI  34
FORT DODGE     CLOUDY    39  34  81 NW8       29.93R WCI  34
$$

...NORTHERN ILLINOIS...


CITY           SKY/WX    TMP DP  RH WIND       PRES   REMARKS
CHICAGO-OHARE  FRZ DRZL  25  23  92 S8        29.89S FOG     WCI  16
CHICAGO-MIDWAY LGT SNOW  27  24  89 SE6       29.91S FOG     WCI  20
MOLINE         CLOUDY    32  30  92 CALM      29.86R
ROCKFORD       FRZ DRZL  25  23  92 S6        29.90R FOG     WCI  18
PEORIA         CLOUDY    31  29  92 S6        29.89R FOG     WCI  25
$$

NOTE: "FAIR" INDICATES FEW OR NO CLOUDS BELOW 12,000 FEET WITH NO
SIGNIFICANT WEATHER AND/OR OBSTRUCTIONS TO VISIBILITY. WIND
SPEEDS ARE IN MILES-PER-HOUR.



USA.gov is the U.S. government's official web portal to all federal, state and local government web resources and services.